Time,TemperatureF,DewpointF,PressureIn,WindDirection,WindDirectionDegrees,WindSpeedMPH,WindSpeedGustMPH,Humidity,HourlyPrecipIn,Conditions,Clouds,dailyrainin,SoftwareType,DateUTC
2013-11-15 00:21:00,48.0,42.0,29.82,SSE,165,0.0,-999.0,79,-99.99,,,-99.99,,2013-11-15 08:21:00,
2013-11-15 00:42:00,47.0,41.0,29.82,SSE,165,0.0,-999.0,80,-99.99,,,-99.99,,2013-11-15 08:42:00,
2013-11-15 00:52:00,47.0,41.0,29.82,SSE,165,0.0,-999.0,80,-99.99,,,-99.99,,2013-11-15 08:52:00,
2013-11-15 01:22:00,47.0,41.0,29.82,SSE,165,0.0,-999.0,81,-99.99,,,-99.99,,2013-11-15 09:22:00,
2013-11-15 01:43:00,46.0,41.0,29.81,SSE,165,0.0,-999.0,81,-99.99,,,-99.99,,2013-11-15 09:43:00,
2013-11-15 01:53:00,46.0,41.0,29.81,East,97,0.0,-999.0,81,-99.99,,,-99.99,,2013-11-15 09:53:00,
2013-11-15 02:22:00,46.0,41.0,29.80,East,97,0.0,-999.0,82,-99.99,,,-99.99,,2013-11-15 10:22:00,
2013-11-15 02:42:00,46.0,41.0,29.80,East,97,0.0,-999.0,82,-99.99,,,-99.99,,2013-11-15 10:42:00,
2013-11-15 02:52:00,46.0,41.0,29.80,East,97,0.0,-999.0,82,-99.99,,,-99.99,,2013-11-15 10:52:00,
2013-11-15 03:22:00,46.0,41.0,29.80,East,97,0.0,-999.0,83,-99.99,,,-99.99,,2013-11-15 11:22:00,
2013-11-15 03:42:00,45.0,40.0,29.79,East,97,0.0,-999.0,83,-99.99,,,-99.99,,2013-11-15 11:42:00,
2013-11-15 03:52:00,45.0,40.0,29.79,East,97,0.0,-999.0,83,-99.99,,,-99.99,,2013-11-15 11:52:00,
2013-11-15 04:11:00,45.0,40.0,29.78,East,97,0.0,-999.0,83,-99.99,,,-99.99,,2013-11-15 12:11:00,
2013-11-15 04:21:00,45.0,40.0,29.78,East,97,0.0,-999.0,83,-99.99,,,-99.99,,2013-11-15 12:21:00,
2013-11-15 04:41:00,45.0,40.0,29.78,East,97,0.0,-999.0,83,-99.99,,,-99.99,,2013-11-15 12:41:00,
2013-11-15 04:52:00,44.0,39.0,29.78,East,97,0.0,-999.0,83,-99.99,,,-99.99,,2013-11-15 12:52:00,
2013-11-15 05:11:00,44.0,39.0,29.78,East,97,0.0,-999.0,83,-99.99,,,-99.99,,2013-11-15 13:11:00,
2013-11-15 05:21:00,44.0,39.0,29.77,East,97,0.0,-999.0,84,-99.99,,,-99.99,,2013-11-15 13:21:00,
2013-11-15 05:42:00,44.0,39.0,29.78,East,97,0.0,-999.0,84,-99.99,,,-99.99,,2013-11-15 13:42:00,
2013-11-15 05:52:00,44.0,39.0,29.78,East,97,0.0,-999.0,84,-99.99,,,-99.99,,2013-11-15 13:52:00,
2013-11-15 06:11:00,43.0,38.0,29.78,East,97,0.0,-999.0,84,-99.99,,,-99.99,,2013-11-15 14:11:00,
2013-11-15 06:21:00,43.0,38.0,29.78,East,97,0.0,-999.0,84,-99.99,,,-99.99,,2013-11-15 14:21:00,
2013-11-15 06:42:00,43.0,38.0,29.78,East,97,0.0,-999.0,84,-99.99,,,-99.99,,2013-11-15 14:42:00,
2013-11-15 06:52:00,43.0,38.0,29.78,East,97,0.0,-999.0,84,-99.99,,,-99.99,,2013-11-15 14:52:00,
2013-11-15 07:11:00,43.0,38.0,29.78,East,97,0.0,-999.0,84,-99.99,,,-99.99,,2013-11-15 15:11:00,
2013-11-15 07:21:00,43.0,39.0,29.78,East,97,0.0,-999.0,85,-99.99,,,-99.99,,2013-11-15 15:21:00,
2013-11-15 07:43:00,43.0,39.0,29.78,East,97,0.0,-999.0,85,-99.99,,,-99.99,,2013-11-15 15:43:00,
2013-11-15 07:53:00,43.0,39.0,29.78,East,97,0.0,-999.0,85,-99.99,,,-99.99,,2013-11-15 15:53:00,
2013-11-15 08:23:00,43.0,39.0,29.80,East,97,0.0,-999.0,85,-99.99,,,-99.99,,2013-11-15 16:23:00,
2013-11-15 08:43:00,44.0,40.0,29.80,East,97,0.0,-999.0,86,-99.99,,,-99.99,,2013-11-15 16:43:00,
2013-11-15 08:53:00,44.0,40.0,29.80,East,97,0.0,-999.0,86,-99.99,,,-99.99,,2013-11-15 16:53:00,
2013-11-15 09:22:00,46.0,42.0,29.80,ENE,71,0.0,-999.0,85,-99.99,,,-99.99,,2013-11-15 17:22:00,
2013-11-15 09:42:00,48.0,43.0,29.80,West,280,0.0,-999.0,84,-99.99,,,-99.99,,2013-11-15 17:42:00,
2013-11-15 09:52:00,50.0,45.0,29.80,WNW,286,0.0,-999.0,82,-99.99,,,-99.99,,2013-11-15 17:52:00,
2013-11-15 10:12:00,51.0,45.0,29.80,West,261,1.0,-999.0,79,-99.99,,,-99.99,,2013-11-15 18:12:00,
2013-11-15 10:22:00,55.0,45.0,29.80,NW,304,0.0,-999.0,70,-99.99,,,-99.99,,2013-11-15 18:22:00,
2013-11-15 10:41:00,56.0,45.0,29.80,NW,321,0.0,-999.0,66,-99.99,,,-99.99,,2013-11-15 18:41:00,
2013-11-15 10:52:00,57.0,45.0,29.79,NNE,22,1.0,-999.0,65,-99.99,,,-99.99,,2013-11-15 18:52:00,
2013-11-15 11:02:00,57.0,45.0,29.79,NNE,22,1.0,-999.0,65,-99.99,,,-99.99,,2013-11-15 19:02:00,
2013-11-15 11:11:00,57.0,45.0,29.79,NNE,22,1.0,-999.0,65,-99.99,,,-99.99,,2013-11-15 19:11:00,
2013-11-15 11:21:00,59.0,45.0,29.78,West,278,1.0,-999.0,59,-99.99,,,-99.99,,2013-11-15 19:21:00,
2013-11-15 11:42:00,60.0,44.0,29.77,NW,323,1.0,-999.0,56,-99.99,,,-99.99,,2013-11-15 19:42:00,
2013-11-15 11:52:00,61.0,44.0,29.76,WNW,282,1.0,-999.0,53,-99.99,,,-99.99,,2013-11-15 19:52:00,
2013-11-15 12:01:00,61.0,44.0,29.76,WNW,282,1.0,-999.0,53,-99.99,,,-99.99,,2013-11-15 20:01:00,
2013-11-15 12:11:00,61.0,44.0,29.76,WNW,282,1.0,-999.0,53,-99.99,,,-99.99,,2013-11-15 20:11:00,
2013-11-15 12:22:00,61.0,44.0,29.76,WNW,282,1.0,-999.0,53,-99.99,,,-99.99,,2013-11-15 20:22:00,
2013-11-15 12:31:00,61.0,44.0,29.76,WNW,282,1.0,-999.0,53,-99.99,,,-99.99,,2013-11-15 20:31:00,
2013-11-15 12:52:00,66.0,40.0,29.73,WSW,242,2.0,-999.0,39,-99.99,,,-99.99,,2013-11-15 20:52:00,
2013-11-15 13:12:00,67.0,40.0,29.72,West,271,2.0,-999.0,37,-99.99,,,-99.99,,2013-11-15 21:12:00,
2013-11-15 13:21:00,67.0,38.0,29.72,West,269,2.0,-999.0,35,-99.99,,,-99.99,,2013-11-15 21:21:00,
2013-11-15 13:43:00,68.0,39.0,29.71,WNW,284,2.0,-999.0,34,-99.99,,,-99.99,,2013-11-15 21:43:00,
2013-11-15 13:54:00,68.0,39.0,29.72,NNW,335,2.0,-999.0,34,-99.99,,,-99.99,,2013-11-15 21:54:00,
2013-11-15 14:14:00,69.0,38.0,29.71,NW,315,2.0,-999.0,32,-99.99,,,-99.99,,2013-11-15 22:14:00,
2013-11-15 14:23:00,68.0,38.0,29.70,NNW,341,1.0,-999.0,33,-99.99,,,-99.99,,2013-11-15 22:23:00,
2013-11-15 14:43:00,68.0,37.0,29.69,WNW,294,2.0,-999.0,32,-99.99,,,-99.99,,2013-11-15 22:43:00,
2013-11-15 14:53:00,68.0,38.0,29.69,West,265,2.0,-999.0,33,-99.99,,,-99.99,,2013-11-15 22:53:00,
2013-11-15 15:22:00,66.0,38.0,29.69,NW,310,1.0,-999.0,36,-99.99,,,-99.99,,2013-11-15 23:22:00,
2013-11-15 15:42:00,67.0,38.0,29.70,WNW,296,1.0,-999.0,34,-99.99,,,-99.99,,2013-11-15 23:42:00,
2013-11-15 15:52:00,67.0,38.0,29.70,WNW,282,0.0,-999.0,34,-99.99,,,-99.99,,2013-11-15 23:52:00,
2013-11-15 16:11:00,66.0,36.0,29.70,WNW,286,0.0,-999.0,33,-99.99,,,-99.99,,2013-11-16 00:11:00,
2013-11-15 16:21:00,65.0,37.0,29.70,NE,45,0.0,-999.0,36,-99.99,,,-99.99,,2013-11-16 00:21:00,
2013-11-15 16:42:00,64.0,37.0,29.70,NE,45,0.0,-999.0,37,-99.99,,,-99.99,,2013-11-16 00:42:00,
2013-11-15 16:52:00,63.0,38.0,29.70,NE,45,0.0,-999.0,39,-99.99,,,-99.99,,2013-11-16 00:52:00,
2013-11-15 17:11:00,62.0,37.0,29.70,NE,45,0.0,-999.0,39,-99.99,,,-99.99,,2013-11-16 01:11:00,
2013-11-15 17:21:00,62.0,37.0,29.70,NE,45,0.0,-999.0,39,-99.99,,,-99.99,,2013-11-16 01:21:00,
2013-11-15 17:42:00,60.0,36.0,29.70,NE,45,0.0,-999.0,41,-99.99,,,-99.99,,2013-11-16 01:42:00,
2013-11-15 17:52:00,59.0,36.0,29.71,NE,45,0.0,-999.0,42,-99.99,,,-99.99,,2013-11-16 01:52:00,
2013-11-15 18:11:00,58.0,36.0,29.71,NE,45,0.0,-999.0,44,-99.99,,,-99.99,,2013-11-16 02:11:00,
2013-11-15 18:22:00,57.0,36.0,29.70,NE,45,0.0,-999.0,46,-99.99,,,-99.99,,2013-11-16 02:22:00,
2013-11-15 18:42:00,56.0,37.0,29.70,NE,45,0.0,-999.0,48,-99.99,,,-99.99,,2013-11-16 02:42:00,
2013-11-15 18:52:00,55.0,36.0,29.71,NE,45,0.0,-999.0,49,-99.99,,,-99.99,,2013-11-16 02:52:00,
2013-11-15 19:11:00,54.0,36.0,29.71,NE,45,0.0,-999.0,51,-99.99,,,-99.99,,2013-11-16 03:11:00,
2013-11-15 19:21:00,53.0,36.0,29.71,NE,45,0.0,-999.0,53,-99.99,,,-99.99,,2013-11-16 03:21:00,
2013-11-15 19:44:00,53.0,37.0,29.72,NE,45,0.0,-999.0,54,-99.99,,,-99.99,,2013-11-16 03:44:00,
2013-11-15 19:54:00,52.0,36.0,29.72,NE,45,0.0,-999.0,55,-99.99,,,-99.99,,2013-11-16 03:54:00,
2013-11-15 20:23:00,51.0,36.0,29.73,NE,45,0.0,-999.0,56,-99.99,,,-99.99,,2013-11-16 04:23:00,
2013-11-15 20:43:00,51.0,37.0,29.73,NE,45,0.0,-999.0,58,-99.99,,,-99.99,,2013-11-16 04:43:00,
2013-11-15 20:53:00,50.0,36.0,29.73,NE,45,0.0,-999.0,59,-99.99,,,-99.99,,2013-11-16 04:53:00,
2013-11-15 21:13:00,50.0,37.0,29.74,NE,45,0.0,-999.0,60,-99.99,,,-99.99,,2013-11-16 05:13:00,
2013-11-15 21:23:00,50.0,37.0,29.75,NE,45,0.0,-999.0,61,-99.99,,,-99.99,,2013-11-16 05:23:00,
2013-11-15 21:43:00,50.0,37.0,29.74,ENE,59,0.0,-999.0,60,-99.99,,,-99.99,,2013-11-16 05:43:00,
2013-11-15 21:52:00,49.0,36.0,29.74,ENE,59,0.0,-999.0,61,-99.99,,,-99.99,,2013-11-16 05:52:00,
2013-11-15 22:13:00,49.0,36.0,29.74,ENE,59,0.0,-999.0,61,-99.99,,,-99.99,,2013-11-16 06:13:00,
2013-11-15 22:22:00,49.0,36.0,29.76,ENE,59,0.0,-999.0,61,-99.99,,,-99.99,,2013-11-16 06:22:00,
2013-11-15 22:42:00,49.0,36.0,29.75,ENE,59,0.0,-999.0,61,-99.99,,,-99.99,,2013-11-16 06:42:00,
2013-11-15 22:52:00,48.0,36.0,29.74,ENE,59,0.0,-999.0,63,-99.99,,,-99.99,,2013-11-16 06:52:00,
2013-11-15 23:22:00,48.0,36.0,29.75,ENE,59,0.0,-999.0,62,-99.99,,,-99.99,,2013-11-16 07:22:00,
2013-11-15 23:42:00,48.0,36.0,29.75,ENE,59,0.0,-999.0,63,-99.99,,,-99.99,,2013-11-16 07:42:00,
2013-11-15 23:52:00,48.0,36.0,29.76,ENE,59,0.0,-999.0,64,-99.99,,,-99.99,,2013-11-16 07:52:00,